TimeEDT,TemperatureF,Dew PointF,Humidity,Sea Level PressureIn,VisibilityMPH,Wind Direction,Wind SpeedMPH,Gust SpeedMPH,PrecipitationIn,Events,Conditions,WindDirDegrees,DateUTC
12:15 AM,62.6,58.1,85,30.28,7.0,Calm,Calm,-,N/A,,Clear,0,2013-08-25 04:15:00
12:35 AM,62.6,58.3,86,30.28,5.0,Calm,Calm,-,N/A,,Haze,0,2013-08-25 04:35:00
12:55 AM,62.1,57.9,86,30.29,3.0,Calm,Calm,-,N/A,,Clear,0,2013-08-25 04:55:00
1:15 AM,60.6,56.7,87,30.29,4.0,Calm,Calm,-,N/A,,Clear,0,2013-08-25 05:15:00
1:35 AM,60.8,56.8,87,30.29,5.0,Calm,Calm,-,N/A,,Clear,0,2013-08-25 05:35:00
1:55 AM,60.1,56.3,87,30.29,4.0,Calm,Calm,-,N/A,,Clear,0,2013-08-25 05:55:00
2:15 AM,60.1,56.5,88,30.29,4.0,Calm,Calm,-,N/A,,Clear,0,2013-08-25 06:15:00
2:35 AM,59.5,55.9,88,30.29,4.0,Calm,Calm,-,N/A,,Clear,0,2013-08-25 06:35:00
2:55 AM,60.1,56.5,88,30.29,5.0,Calm,Calm,-,N/A,,Clear,0,2013-08-25 06:55:00
3:15 AM,59.7,56.1,88,30.29,4.0,Calm,Calm,-,N/A,,Clear,0,2013-08-25 07:15:00
3:35 AM,59.0,55.4,88,30.30,2.5,Calm,Calm,-,N/A,,Clear,0,2013-08-25 07:35:00
3:55 AM,57.7,54.1,88,30.30,0.8,Calm,Calm,-,N/A,,Mist,0,2013-08-25 07:55:00
4:15 AM,58.1,54.5,88,30.30,2.0,Calm,Calm,-,N/A,,Clear,0,2013-08-25 08:15:00
4:35 AM,57.7,54.1,88,30.30,1.2,Calm,Calm,-,N/A,,Mist,0,2013-08-25 08:35:00
4:55 AM,57.7,54.1,88,30.31,0.2,Calm,Calm,-,N/A,Fog,Fog,0,2013-08-25 08:55:00
5:15 AM,57.7,54.1,88,30.32,1.8,Calm,Calm,-,N/A,,Mist,0,2013-08-25 09:15:00
5:35 AM,57.7,54.5,89,30.32,2.5,Calm,Calm,-,N/A,,Clear,0,2013-08-25 09:35:00
5:55 AM,57.7,54.5,89,30.32,2.5,Calm,Calm,-,N/A,,Clear,0,2013-08-25 09:55:00
6:15 AM,57.7,54.5,89,30.33,3.0,Calm,Calm,-,N/A,,Clear,0,2013-08-25 10:15:00
6:35 AM,57.7,54.5,89,30.33,3.0,Calm,Calm,-,N/A,,Clear,0,2013-08-25 10:35:00
6:55 AM,57.7,54.5,89,30.34,2.5,Calm,Calm,-,N/A,,Clear,0,2013-08-25 10:55:00
7:15 AM,57.7,54.5,89,30.34,1.2,Calm,Calm,-,N/A,,Mist,0,2013-08-25 11:15:00
7:35 AM,57.7,54.5,89,30.36,2.5,Calm,Calm,-,N/A,,Clear,0,2013-08-25 11:35:00
7:55 AM,58.3,54.9,88,30.36,3.0,Calm,Calm,-,N/A,,Clear,0,2013-08-25 11:55:00
8:15 AM,60.1,56.8,89,30.36,4.0,Calm,Calm,-,N/A,,Clear,0,2013-08-25 12:15:00
8:35 AM,62.1,58.8,89,30.36,5.0,Calm,Calm,-,N/A,,Clear,0,2013-08-25 12:35:00
8:55 AM,64.4,60.8,88,30.36,5.0,Calm,Calm,-,N/A,,Clear,0,2013-08-25 12:55:00
9:15 AM,67.6,63.5,87,30.36,7.0,Calm,Calm,-,N/A,,Clear,0,2013-08-25 13:15:00
9:35 AM,68.2,61.0,78,30.35,10.0,Calm,Calm,-,N/A,,Clear,0,2013-08-25 13:35:00
9:55 AM,72.7,63.1,72,30.35,10.0,Calm,Calm,-,N/A,,Clear,0,2013-08-25 13:55:00
10:15 AM,72.7,60.4,65,30.35,10.0,Calm,Calm,-,N/A,,Clear,0,2013-08-25 14:15:00
10:35 AM,75.2,59.7,58,30.35,10.0,Calm,Calm,-,N/A,,Clear,0,2013-08-25 14:35:00
10:55 AM,75.7,58.8,56,30.34,10.0,Calm,Calm,-,N/A,,Clear,0,2013-08-25 14:55:00
11:15 AM,77.9,57.9,50,30.34,10.0,Calm,Calm,-,N/A,,Clear,0,2013-08-25 15:15:00
11:35 AM,79.0,57.6,48,30.34,10.0,WSW,3.5,-,N/A,,Clear,250,2013-08-25 15:35:00
11:55 AM,80.2,49.6,34,30.34,10.0,Calm,Calm,-,N/A,,Clear,0,2013-08-25 15:55:00
12:15 PM,80.2,49.8,34,30.34,10.0,Calm,Calm,-,N/A,,Clear,0,2013-08-25 16:15:00
12:35 PM,81.5,49.6,33,30.33,10.0,Calm,Calm,-,N/A,,Clear,0,2013-08-25 16:35:00
12:55 PM,81.7,50.5,34,30.33,10.0,NNE,3.5,-,N/A,,Clear,30,2013-08-25 16:55:00
1:15 PM,82.8,51.6,34,30.32,10.0,Calm,Calm,-,N/A,,Clear,0,2013-08-25 17:15:00
1:35 PM,83.8,50.7,32,30.32,10.0,Calm,Calm,-,N/A,,Clear,0,2013-08-25 17:35:00
1:55 PM,84.6,49.8,30,30.31,10.0,ENE,4.6,-,N/A,,Clear,60,2013-08-25 17:55:00
2:15 PM,85.3,48.9,28,30.30,10.0,West,3.5,-,N/A,,Clear,270,2013-08-25 18:15:00
2:35 PM,86.0,50.0,29,30.30,10.0,East,3.5,-,N/A,,Clear,80,2013-08-25 18:35:00
2:55 PM,84.4,47.5,28,30.30,10.0,Calm,Calm,-,N/A,,Clear,0,2013-08-25 18:55:00
3:15 PM,85.3,47.5,27,30.29,10.0,NNE,3.5,-,N/A,,Clear,20,2013-08-25 19:15:00
3:35 PM,87.8,50.7,28,30.29,10.0,East,5.8,-,N/A,,Clear,80,2013-08-25 19:35:00
3:55 PM,87.8,49.1,26,30.28,10.0,Calm,Calm,-,N/A,,Clear,0,2013-08-25 19:55:00
4:15 PM,87.8,52.0,29,30.28,10.0,NW,3.5,-,N/A,,Clear,310,2013-08-25 20:15:00
4:35 PM,87.8,50.4,27,30.27,10.0,Calm,Calm,-,N/A,,Clear,0,2013-08-25 20:35:00
4:55 PM,87.8,50.7,28,30.26,10.0,Calm,Calm,-,N/A,,Clear,0,2013-08-25 20:55:00
5:15 PM,87.8,52.9,30,30.26,10.0,North,4.6,-,N/A,,Clear,10,2013-08-25 21:15:00
5:35 PM,86.9,50.9,29,30.26,10.0,Calm,Calm,-,N/A,,Clear,0,2013-08-25 21:35:00
5:55 PM,85.6,50.7,30,30.25,10.0,NE,4.6,-,N/A,,Clear,40,2013-08-25 21:55:00
6:15 PM,85.3,51.1,31,30.25,10.0,NNE,4.6,-,N/A,,Clear,20,2013-08-25 22:15:00
6:35 PM,83.1,52.9,35,30.25,10.0,East,4.6,-,N/A,,Clear,80,2013-08-25 22:35:00
6:55 PM,82.0,52.5,36,30.25,10.0,East,6.9,-,N/A,,Clear,100,2013-08-25 22:55:00
7:15 PM,81.0,52.2,37,30.25,10.0,SE,5.8,-,N/A,,Clear,130,2013-08-25 23:15:00
7:35 PM,80.1,53.2,39,30.25,10.0,ESE,4.6,-,N/A,,Clear,120,2013-08-25 23:35:00
7:55 PM,78.6,53.4,42,30.25,10.0,SE,3.5,-,N/A,,Clear,130,2013-08-25 23:55:00
8:15 PM,77.0,55.6,47,30.25,10.0,Calm,Calm,-,N/A,,Clear,0,2013-08-26 00:15:00
8:35 PM,72.7,63.7,73,30.25,10.0,Calm,Calm,-,N/A,,Clear,0,2013-08-26 00:35:00
8:55 PM,68.0,60.6,77,30.25,10.0,Calm,Calm,-,N/A,,Clear,0,2013-08-26 00:55:00
9:15 PM,67.6,61.0,79,30.25,10.0,Calm,Calm,-,N/A,,Clear,0,2013-08-26 01:15:00
9:35 PM,67.6,61.9,82,30.26,10.0,Calm,Calm,-,N/A,,Clear,0,2013-08-26 01:35:00
9:55 PM,67.6,61.9,82,30.26,10.0,Calm,Calm,-,N/A,,Clear,0,2013-08-26 01:55:00
10:15 PM,67.6,61.7,81,30.27,10.0,Calm,Calm,-,N/A,,Clear,0,2013-08-26 02:15:00
10:35 PM,67.6,62.6,84,30.28,10.0,Calm,Calm,-,N/A,,Clear,0,2013-08-26 02:35:00
10:55 PM,65.3,59.9,83,30.28,10.0,Calm,Calm,-,N/A,,Clear,0,2013-08-26 02:55:00
11:15 PM,62.6,58.1,85,30.28,10.0,Calm,Calm,-,N/A,,Clear,0,2013-08-26 03:15:00
11:35 PM,62.2,57.9,86,30.28,10.0,Calm,Calm,-,N/A,,Clear,0,2013-08-26 03:35:00
11:55 PM,61.9,57.7,86,30.28,10.0,Calm,Calm,-,N/A,,Clear,0,2013-08-26 03:55:00